QPF
0.00 0.00 0.00 0.00 0.00 0.00 0.00 0.00 0.00 0.00 0.00 0.00 0.00 0.00 0.00 0.00 0.01 0.01 0.00 0.01 0.01 0.01 0.01 0.01 0.02 0.02 0.02 0.02 0.05 0.07 0.09 0.11 0.13 0.16 0.14 0.14 0.15 0.17 0.17 0.17 0.16 0.15 0.15
0.00 0.00 0.00 0.00 0.00 0.00 0.00 0.00 0.00 0.00 0.00 0.00 0.00 0.00 0.00 0.00 0.01 0.01 0.01 0.01 0.02 0.01 0.01 0.01 0.01 0.02 0.01 0.02 0.03 0.05 0.07 0.11 0.14 0.14 0.15 0.12 0.12 0.13 0.13 0.15 0.15 0.15 0.18
0.00 0.00 0.00 0.00 0.00 0.00 0.00 0.00 0.00 0.00 0.00 0.00 0.00 0.00 0.00 0.00 0.00 0.01 0.01 0.01 0.01 0.01 0.01 0.00 0.01 0.01 0.01 0.01 0.02 0.04 0.06 0.08 0.12 0.15 0.16 0.11 0.08 0.11 0.11 0.10 0.12 0.16 0.20
0.00 0.00 0.00 0.00 0.00 0.00 0.00 0.00 0.00 0.00 0.00 0.00 0.00 0.00 0.00 0.00 0.00 0.00 0.00 0.00 0.00 0.00 0.00 0.00 0.00 0.00 0.01 0.01 0.02 0.03 0.04 0.05 0.07 0.11 0.11 0.10 0.08 0.08 0.07 0.07 0.10 0.14 0.18
0.00 0.00 0.00 0.00 0.00 0.00 0.00 0.00 0.00 0.00 0.00 0.00 0.00 0.00 0.00 0.00 0.00 0.00 0.00 0.00 0.00 0.00 0.00 0.00 0.00 0.00 0.00 0.01 0.01 0.02 0.03 0.04 0.04 0.07 0.09 0.10 0.10 0.09 0.06 0.04 0.06 0.11 0.16
0.00 0.00 0.00 0.00 0.00 0.00 0.00 0.00 0.00 0.00 0.00 0.00 0.00 0.00 0.00 0.00 0.00 0.00 0.00 0.00 0.00 0.00 0.00 0.00 0.00 0.00 0.00 0.00 0.01 0.01 0.02 0.03 0.03 0.05 0.08 0.08 0.09 0.09 0.07 0.05 0.04 0.07 0.11
0.00 0.00 0.00 0.00 0.00 0.00 0.00 0.00 0.00 0.00 0.00 0.00 0.00 0.00 0.00 0.00 0.00 0.00 0.00 0.00 0.00 0.00 0.00 0.00 0.00 0.00 0.00 0.00 0.00 0.00 0.01 0.01 0.03 0.04 0.05 0.08 0.07 0.08 0.10 0.08 0.06 0.05 0.08
0.00 0.00 0.00 0.00 0.00 0.00 0.00 0.00 0.00 0.00 0.00 0.00 0.00 0.00 0.00 0.00 0.00 0.00 0.00 0.00 0.00 0.00 0.00 0.00 0.00 0.00 0.00 0.00 0.01 0.01 0.01 0.01 0.02 0.04 0.05 0.07 0.06 0.06 0.07 0.07 0.06 0.05 0.05
0.00 0.00 0.00 0.00 0.00 0.00 0.00 0.00 0.00 0.00 0.00 0.00 0.00 0.00 0.00 0.00 0.00 0.00 0.00 0.00 0.00 0.00 0.00 0.00 0.00 0.00 0.00 0.01 0.01 0.01 0.01 0.01 0.01 0.03 0.02 0.03 0.06 0.07 0.07 0.06 0.06 0.06 0.04
0.00 0.00 0.00 0.00 0.00 0.00 0.00 0.00 0.00 0.00 0.00 0.00 0.00 0.00 0.00 0.00 0.00 0.00 0.00 0.00 0.00 0.00 0.00 0.00 0.00 0.00 0.00 0.01 0.01 0.01 0.01 0.01 0.02 0.03 0.02 0.02 0.03 0.05 0.07 0.07 0.06 0.06 0.05
0.00 0.00 0.00 0.00 0.00 0.00 0.00 0.00 0.00 0.00 0.00 0.00 0.00 0.00 0.00 0.00 0.00 0.00 0.00 0.00 0.00 0.00 0.00 0.00 0.00 0.00 0.00 0.01 0.01 0.01 0.01 0.02 0.02 0.03 0.03 0.02 0.03 0.04 0.06 0.06 0.06 0.07 0.06
0.00 0.00 0.00 0.00 0.00 0.00 0.00 0.00 0.00 0.00 0.00 0.00 0.00 0.00 0.00 0.00 0.00 0.00 0.00 0.00 0.00 0.00 0.00 0.00 0.01 0.01 0.01 0.01 0.00 0.01 0.01 0.01 0.02 0.02 0.02 0.02 0.03 0.03 0.04 0.06 0.06 0.05 0.06
0.00 0.00 0.00 0.00 0.00 0.00 0.00 0.00 0.00 0.00 0.00 0.00 0.00 0.00 0.00 0.00 0.00 0.00 0.00 0.00 0.00 0.00 0.00 0.00 0.01 0.02 0.02 0.02 0.02 0.02 0.01 0.01 0.02 0.02 0.02 0.03 0.03 0.03 0.03 0.04 0.05 0.05 0.06
0.00 0.00 0.00 0.00 0.00 0.00 0.00 0.00 0.00 0.00 0.00 0.00 0.00 0.00 0.00 0.00 0.00 0.00 0.00 0.00 0.00 0.00 0.00 0.00 0.00 0.01 0.02 0.02 0.02 0.03 0.02 0.02 0.01 0.02 0.02 0.02 0.03 0.03 0.03 0.03 0.04 0.06 0.07
0.00 0.00 0.00 0.00 0.00 0.00 0.00 0.00 0.00 0.00 0.00 0.00 0.00 0.00 0.00 0.00 0.00 0.00 0.00 0.00 0.00 0.00 0.00 0.00 0.00 0.00 0.01 0.02 0.02 0.02 0.03 0.03 0.02 0.03 0.02 0.01 0.02 0.03 0.03 0.02 0.04 0.06 0.07
0.00 0.00 0.00 0.00 0.00 0.00 0.00 0.00 0.00 0.00 0.00 0.00 0.00 0.00 0.00 0.00 0.00 0.00 0.00 0.00 0.00 0.00 0.00 0.00 0.00 0.00 0.00 0.00 0.01 0.03 0.03 0.02 0.02 0.02 0.01 0.02 0.02 0.02 0.03 0.03 0.04 0.06 0.07
0.00 0.00 0.00 0.00 0.00 0.00 0.00 0.00 0.00 0.00 0.00 0.00 0.00 0.00 0.00 0.00 0.00 0.00 0.00 0.00 0.00 0.00 0.00 0.00 0.00 0.00 0.00 0.00 0.01 0.02 0.02 0.03 0.03 0.02 0.01 0.01 0.01 0.01 0.02 0.02 0.02 0.04 0.07
0.00 0.00 0.00 0.00 0.00 0.00 0.00 0.00 0.00 0.00 0.00 0.00 0.00 0.00 0.00 0.00 0.00 0.00 0.00 0.00 0.00 0.00 0.00 0.00 0.00 0.00 0.00 0.00 0.01 0.01 0.01 0.02 0.02 0.02 0.02 0.02 0.02 0.02 0.02 0.01 0.01 0.01 0.03
0.00 0.00 0.00 0.00 0.00 0.00 0.00 0.00 0.00 0.00 0.00 0.00 0.00 0.00 0.00 0.00 0.00 0.00 0.00 0.00 0.00 0.00 0.00 0.00 0.00 0.00 0.00 0.00 0.01 0.01 0.01 0.01 0.01 0.01 0.02 0.02 0.02 0.02 0.02 0.01 0.00 0.00 0.01
0.00 0.00 0.00 0.00 0.00 0.00 0.00 0.00 0.00 0.00 0.00 0.00 0.00 0.00 0.00 0.00 0.00 0.00 0.00 0.00 0.00 0.00 0.00 0.00 0.00 0.00 0.00 0.00 0.00 0.01 0.01 0.01 0.01 0.01 0.02 0.02 0.01 0.01 0.01 0.01 0.00 0.00 0.00
0.00 0.00 0.00 0.00 0.00 0.00 0.00 0.00 0.00 0.00 0.00 0.00 0.00 0.00 0.00 0.00 0.00 0.00 0.00 0.00 0.00 0.00 0.00 0.00 0.00 0.00 0.00 0.00 0.01 0.01 0.00 0.00 0.00 0.01 0.01 0.02 0.01 0.01 0.00 0.00 0.01 0.01 0.02
0.00 0.00 0.00 0.00 0.00 0.00 0.00 0.00 0.00 0.00 0.00 0.00 0.00 0.00 0.00 0.00 0.00 0.00 0.00 0.00 0.00 0.00 0.00 0.00 0.00 0.00 0.00 0.00 0.01 0.01 0.01 0.01 0.00 0.00 0.01 0.01 0.01 0.01 0.01 0.01 0.01 0.02 0.04
0.00 0.00 0.00 0.00 0.00 0.00 0.00 0.00 0.00 0.00 0.00 0.00 0.00 0.00 0.00 0.00 0.00 0.00 0.00 0.00 0.00 0.00 0.00 0.00 0.00 0.00 0.00 0.00 0.00 0.01 0.01 0.01 0.00 0.00 0.01 0.01 0.01 0.00 0.01 0.01 0.02 0.02 0.02
0.00 0.00 0.00 0.00 0.00 0.00 0.00 0.00 0.00 0.00 0.00 0.00 0.00 0.00 0.00 0.00 0.00 0.00 0.00 0.00 0.00 0.00 0.00 0.00 0.00 0.00 0.00 0.00 0.00 0.00 0.00 0.00 0.00 0.00 0.01 0.01 0.01 0.01 0.01 0.01 0.01 0.02 0.02
0.00 0.00 0.00 0.00 0.00 0.00 0.00 0.00 0.00 0.00 0.00 0.00 0.00 0.00 0.00 0.00 0.00 0.00 0.00 0.00 0.00 0.00 0.00 0.00 0.00 0.00 0.00 0.00 0.00 0.00 0.00 0.00 0.00 0.00 0.01 0.01 0.00 0.01 0.01 0.02 0.02 0.02 0.03
0.00 0.00 0.00 0.00 0.00 0.00 0.00 0.00 0.00 0.00 0.00 0.00 0.00 0.00 0.00 0.00 0.00 0.00 0.00 0.00 0.00 0.00 0.00 0.00 0.00 0.00 0.00 0.00 0.00 0.00 0.00 0.00 0.00 0.00 0.00 0.00 0.01 0.01 0.01 0.02 0.03 0.04 0.03
MSLP
1015.11 1015.22 1015.31 1015.33 1015.30 1015.22 1015.11 1015.00 1014.92 1014.86 1014.84 1014.82 1014.79 1014.70 1014.53 1014.26 1013.89 1013.43 1012.92 1012.40 1011.92 1011.49 1011.16 1010.94 1010.82 1010.78 1010.81 1010.89 1011.01 1011.15 1011.30 1011.48 1011.67 1011.87 1012.06 1012.23 1012.37 1012.45 1012.48 1012.45 1012.38 1012.30 1012.23
1015.14 1015.32 1015.44 1015.49 1015.45 1015.34 1015.20 1015.07 1014.98 1014.94 1014.96 1014.99 1015.01 1014.97 1014.84 1014.59 1014.21 1013.73 1013.20 1012.65 1012.14 1011.70 1011.36 1011.13 1010.99 1010.93 1010.92 1010.95 1011.00 1011.07 1011.17 1011.31 1011.48 1011.68 1011.91 1012.13 1012.33 1012.47 1012.53 1012.53 1012.47 1012.38 1012.30
1015.07 1015.30 1015.46 1015.53 1015.49 1015.37 1015.22 1015.08 1014.99 1014.98 1015.03 1015.12 1015.21 1015.23 1015.15 1014.93 1014.57 1014.10 1013.57 1013.02 1012.50 1012.06 1011.72 1011.47 1011.31 1011.21 1011.14 1011.10 1011.07 1011.06 1011.09 1011.18 1011.32 1011.53 1011.77 1012.03 1012.28 1012.47 1012.59 1012.63 1012.59 1012.50 1012.40
1014.89 1015.16 1015.36 1015.45 1015.43 1015.32 1015.16 1015.02 1014.94 1014.95 1015.04 1015.18 1015.32 1015.40 1015.38 1015.21 1014.89 1014.46 1013.95 1013.42 1012.92 1012.49 1012.15 1011.89 1011.70 1011.56 1011.43 1011.32 1011.21 1011.13 1011.09 1011.12 1011.23 1011.41 1011.66 1011.95 1012.22 1012.46 1012.61 1012.68 1012.67 1012.59 1012.48
1014.63 1014.93 1015.17 1015.29 1015.29 1015.19 1015.04 1014.91 1014.83 1014.85 1014.97 1015.14 1015.32 1015.45 1015.48 1015.36 1015.10 1014.72 1014.26 1013.77 1013.30 1012.89 1012.55 1012.29 1012.08 1011.90 1011.73 1011.57 1011.40 1011.26 1011.16 1011.14 1011.21 1011.37 1011.60 1011.88 1012.16 1012.41 1012.58 1012.66 1012.66 1012.58 1012.47
1014.33 1014.67 1014.94 1015.10 1015.12 1015.04 1014.90 1014.76 1014.68 1014.70 1014.81 1014.99 1015.19 1015.35 1015.41 1015.35 1015.14 1014.82 1014.41 1013.97 1013.54 1013.16 1012.85 1012.59 1012.38 1012.19 1012.00 1011.80 1011.60 1011.42 1011.29 1011.23 1011.26 1011.38 1011.59 1011.84 1012.09 1012.32 1012.48 1012.55 1012.53 1012.45 1012.32
1014.04 1014.40 1014.71 1014.90 1014.96 1014.89 1014.76 1014.61 1014.52 1014.51 1014.60 1014.76 1014.95 1015.12 1015.20 1015.17 1015.01 1014.74 1014.39 1014.01 1013.63 1013.29 1013.01 1012.77 1012.57 1012.38 1012.18 1011.98 1011.78 1011.59 1011.44 1011.36 1011.36 1011.45 1011.60 1011.80 1012.01 1012.18 1012.30 1012.33 1012.29 1012.19 1012.04
1013.79 1014.17 1014.51 1014.73 1014.82 1014.77 1014.63 1014.47 1014.35 1014.31 1014.36 1014.48 1014.64 1014.79 1014.88 1014.87 1014.75 1014.53 1014.24 1013.91 1013.58 1013.28 1013.03 1012.82 1012.64 1012.47 1012.29 1012.11 1011.92 1011.74 1011.60 1011.51 1011.48 1011.53 1011.63 1011.76 1011.90 1012.01 1012.06 1012.05 1011.97 1011.83 1011.66
1013.58 1013.98 1014.34 1014.58 1014.68 1014.64 1014.51 1014.34 1014.19 1014.11 1014.12 1014.20 1014.32 1014.45 1014.53 1014.53 1014.44 1014.26 1014.02 1013.74 1013.46 1013.20 1012.98 1012.80 1012.64 1012.49 1012.34 1012.18 1012.02 1011.86 1011.73 1011.64 1011.60 1011.61 1011.65 1011.71 1011.77 1011.81 1011.79 1011.72 1011.61 1011.45 1011.26
1013.40 1013.81 1014.17 1014.42 1014.52 1014.49 1014.36 1014.18 1014.02 1013.92 1013.89 1013.93 1014.03 1014.13 1014.20 1014.21 1014.15 1014.01 1013.81 1013.58 1013.34 1013.12 1012.93 1012.76 1012.62 1012.49 1012.36 1012.22 1012.08 1011.95 1011.83 1011.74 1011.68 1011.65 1011.64 1011.64 1011.63 1011.59 1011.52 1011.40 1011.25 1011.08 1010.89
1013.24 1013.61 1013.95 1014.19 1014.29 1014.26 1014.14 1013.98 1013.82 1013.72 1013.68 1013.71 1013.79 1013.89 1013.96 1013.98 1013.94 1013.84 1013.68 1013.49 1013.29 1013.10 1012.92 1012.77 1012.63 1012.51 1012.38 1012.25 1012.12 1011.99 1011.88 1011.78 1011.69 1011.63 1011.57 1011.52 1011.45 1011.36 1011.24 1011.10 1010.93 1010.76 1010.58
1013.05 1013.37 1013.66 1013.86 1013.95 1013.92 1013.83 1013.69 1013.57 1013.50 1013.48 1013.53 1013.62 1013.72 1013.80 1013.85 1013.83 1013.76 1013.65 1013.49 1013.32 1013.15 1012.99 1012.84 1012.69 1012.56 1012.41 1012.27 1012.13 1011.99 1011.86 1011.74 1011.64 1011.54 1011.44 1011.34 1011.23 1011.10 1010.96 1010.80 1010.64 1010.48 1010.33
1012.82 1013.07 1013.28 1013.43 1013.49 1013.48 1013.41 1013.33 1013.26 1013.24 1013.28 1013.36 1013.48 1013.60 1013.71 1013.77 1013.78 1013.75 1013.66 1013.54 1013.40 1013.25 1013.09 1012.93 1012.78 1012.61 1012.45 1012.28 1012.11 1011.94 1011.78 1011.64 1011.50 1011.37 1011.24 1011.11 1010.97 1010.82 1010.66 1010.50 1010.35 1010.21 1010.09
1012.56 1012.71 1012.83 1012.92 1012.95 1012.94 1012.92 1012.90 1012.91 1012.96 1013.06 1013.19 1013.34 1013.49 1013.61 1013.69 1013.72 1013.71 1013.65 1013.56 1013.44 1013.31 1013.16 1013.00 1012.82 1012.64 1012.44 1012.23 1012.03 1011.83 1011.64 1011.46 1011.29 1011.13 1010.97 1010.82 1010.66 1010.49 1010.33 1010.17 1010.02 1009.90 1009.79
1012.27 1012.32 1012.36 1012.38 1012.38 1012.39 1012.40 1012.45 1012.53 1012.66 1012.82 1013.00 1013.17 1013.33 1013.46 1013.54 1013.57 1013.57 1013.52 1013.45 1013.36 1013.24 1013.10 1012.94 1012.76 1012.56 1012.33 1012.10 1011.86 1011.63 1011.41 1011.21 1011.02 1010.84 1010.66 1010.48 1010.31 1010.13 1009.95 1009.78 1009.63 1009.50 1009.39
1011.97 1011.94 1011.90 1011.87 1011.86 1011.88 1011.94 1012.04 1012.19 1012.38 1012.58 1012.78 1012.96 1013.11 1013.21 1013.27 1013.28 1013.27 1013.22 1013.16 1013.08 1012.98 1012.86 1012.71 1012.53 1012.32 1012.09 1011.84 1011.59 1011.34 1011.11 1010.89 1010.69 1010.50 1010.32 1010.13 1009.94 1009.74 1009.54 1009.34 1009.16 1009.01 1008.88
1011.70 1011.61 1011.53 1011.47 1011.46 1011.50 1011.59 1011.74 1011.94 1012.15 1012.36 1012.56 1012.71 1012.81 1012.86 1012.87 1012.84 1012.80 1012.73 1012.66 1012.59 1012.50 1012.40 1012.27 1012.10 1011.91 1011.68 1011.45 1011.20 1010.96 1010.73 1010.52 1010.33 1010.15 1009.97 1009.77 1009.57 1009.34 1009.11 1008.87 1008.65 1008.44 1008.26
1011.46 1011.36 1011.28 1011.22 1011.22 1011.29 1011.41 1011.59 1011.80 1012.01 1012.20 1012.35 1012.45 1012.48 1012.45 1012.39 1012.30 1012.20 1012.10 1012.01 1011.93 1011.85 1011.76 1011.65 1011.50 1011.33 1011.13 1010.91 1010.69 1010.48 1010.28 1010.10 1009.93 1009.77 1009.61 1009.42 1009.20 1008.96 1008.68 1008.39 1008.10 1007.83 1007.58
1011.28 1011.21 1011.16 1011.13 1011.17 1011.26 1011.41 1011.59 1011.80 1011.98 1012.12 1012.21 1012.22 1012.16 1012.05 1011.90 1011.73 1011.57 1011.43 1011.31 1011.21 1011.13 1011.04 1010.93 1010.80 1010.64 1010.46 1010.27 1010.08 1009.91 1009.75 1009.62 1009.50 1009.38 1009.24 1009.06 1008.85 1008.58 1008.27 1007.92 1007.57 1007.21 1006.89
1011.14 1011.14 1011.15 1011.19 1011.26 1011.39 1011.55 1011.74 1011.91 1012.05 1012.14 1012.14 1012.07 1011.92 1011.72 1011.49 1011.26 1011.04 1010.84 1010.69 1010.56 1010.45 1010.33 1010.21 1010.08 1009.92 1009.75 1009.58 1009.42 1009.28 1009.17 1009.09 1009.01 1008.94 1008.83 1008.68 1008.47 1008.19 1007.85 1007.46 1007.04 1006.63 1006.24
1011.04 1011.14 1011.23 1011.33 1011.46 1011.62 1011.80 1011.97 1012.12 1012.21 1012.23 1012.17 1012.02 1011.81 1011.54 1011.25 1010.96 1010.69 1010.45 1010.25 1010.08 1009.92 1009.77 1009.60 1009.43 1009.25 1009.06 1008.89 1008.73 1008.62 1008.54 1008.50 1008.47 1008.44 1008.37 1008.25 1008.05 1007.77 1007.41 1006.99 1006.53 1006.06 1005.62
1010.97 1011.17 1011.35 1011.52 1011.70 1011.89 1012.08 1012.24 1012.36 1012.42 1012.39 1012.28 1012.09 1011.83 1011.53 1011.21 1010.88 1010.58 1010.31 1010.06 1009.84 1009.62 1009.41 1009.18 1008.94 1008.70 1008.47 1008.26 1008.09 1007.97 1007.91 1007.89 1007.89 1007.89 1007.86 1007.76 1007.58 1007.30 1006.93 1006.49 1006.01 1005.51 1005.04
1010.92 1011.21 1011.47 1011.71 1011.94 1012.15 1012.35 1012.50 1012.60 1012.63 1012.58 1012.45 1012.24 1011.98 1011.68 1011.35 1011.03 1010.72 1010.43 1010.14 1009.87 1009.58 1009.29 1008.98 1008.65 1008.33 1008.02 1007.76 1007.55 1007.40 1007.32 1007.30 1007.31 1007.33 1007.31 1007.22 1007.05 1006.78 1006.41 1005.97 1005.47 1004.97 1004.48
1010.88 1011.24 1011.56 1011.86 1012.12 1012.36 1012.56 1012.72 1012.81 1012.83 1012.78 1012.65 1012.46 1012.22 1011.94 1011.65 1011.35 1011.05 1010.75 1010.44 1010.12 1009.77 1009.39 1008.99 1008.57 1008.16 1007.77 1007.43 1007.16 1006.96 1006.85 1006.81 1006.81 1006.81 1006.79 1006.70 1006.53 1006.25 1005.88 1005.43 1004.94 1004.42 1003.94
1010.84 1011.25 1011.62 1011.96 1012.25 1012.51 1012.72 1012.87 1012.97 1012.99 1012.95 1012.84 1012.68 1012.48 1012.25 1012.00 1011.74 1011.47 1011.18 1010.86 1010.51 1010.11 1009.67 1009.19 1008.69 1008.20 1007.73 1007.31 1006.98 1006.73 1006.58 1006.49 1006.46 1006.44 1006.39 1006.28 1006.08 1005.79 1005.41 1004.95 1004.45 1003.93 1003.44
1010.77 1011.23 1011.64 1012.01 1012.33 1012.60 1012.82 1012.98 1013.08 1013.11 1013.08 1013.00 1012.88 1012.72 1012.54 1012.35 1012.13 1011.90 1011.63 1011.32 1010.96 1010.53 1010.06 1009.53 1008.98 1008.43 1007.91 1007.45 1007.06 1006.77 1006.57 1006.44 1006.36 1006.29 1006.20 1006.05 1005.82 1005.50 1005.09 1004.60 1004.08 1003.55 1003.05
Thickness
5729 5727 5723 5719 5714 5710 5706 5701 5696 5691 5687 5682 5678 5674 5672 5671 5671 5671 5671 5671 5672 5674 5675 5677 5680 5683 5685 5688 5692 5694 5697 5701 5705 5707 5710 5717 5722 5726 5729 5733 5736 5739 5741
5725 5723 5720 5717 5713 5708 5704 5700 5695 5690 5686 5682 5678 5674 5671 5669 5669 5668 5669 5669 5669 5671 5673 5673 5675 5677 5679 5682 5685 5688 5690 5694 5699 5700 5700 5703 5710 5719 5727 5729 5732 5735 5738
5724 5721 5718 5715 5711 5708 5704 5701 5695 5691 5687 5683 5678 5674 5670 5668 5666 5665 5665 5667 5667 5668 5669 5670 5671 5673 5675 5676 5679 5683 5684 5686 5691 5695 5696 5695 5698 5707 5717 5724 5729 5731 5734
5727 5722 5719 5715 5712 5709 5706 5702 5697 5692 5688 5684 5678 5672 5667 5663 5663 5662 5663 5665 5666 5666 5667 5667 5668 5670 5671 5673 5675 5678 5680 5682 5683 5688 5693 5696 5699 5699 5703 5713 5720 5726 5729
5728 5724 5721 5718 5715 5712 5708 5703 5698 5693 5689 5685 5679 5674 5669 5665 5664 5663 5663 5663 5664 5664 5665 5665 5666 5667 5668 5669 5671 5673 5675 5677 5679 5682 5685 5688 5692 5695 5696 5700 5708 5715 5723
5729 5726 5724 5720 5716 5713 5709 5704 5699 5694 5690 5686 5681 5676 5671 5667 5665 5663 5662 5661 5662 5663 5663 5664 5664 5664 5665 5666 5668 5669 5671 5673 5675 5677 5680 5682 5685 5688 5691 5693 5698 5704 5713
5729 5726 5722 5719 5716 5713 5709 5705 5700 5695 5691 5687 5683 5678 5674 5670 5667 5664 5662 5661 5660 5660 5661 5662 5661 5662 5663 5664 5665 5665 5667 5668 5670 5672 5675 5678 5682 5685 5687 5689 5691 5696 5704
5730 5728 5725 5721 5717 5714 5710 5705 5701 5696 5693 5688 5684 5681 5677 5673 5669 5667 5664 5662 5660 5660 5661 5660 5660 5660 5660 5661 5661 5661 5662 5664 5665 5667 5669 5673 5676 5680 5683 5685 5686 5688 5693
5731 5729 5726 5723 5719 5715 5712 5708 5703 5698 5694 5691 5687 5682 5679 5675 5671 5669 5666 5664 5662 5661 5660 5659 5658 5658 5657 5657 5657 5657 5658 5659 5660 5662 5665 5667 5671 5674 5679 5681 5683 5683 5684
5732 5730 5727 5724 5721 5718 5714 5710 5705 5701 5697 5693 5688 5685 5681 5677 5673 5670 5667 5664 5663 5661 5659 5658 5656 5655 5654 5654 5653 5653 5654 5654 5656 5658 5660 5662 5665 5668 5672 5676 5679 5682 5683
5733 5730 5728 5725 5723 5719 5715 5710 5706 5702 5698 5694 5690 5686 5682 5678 5675 5671 5668 5665 5663 5661 5659 5656 5654 5653 5652 5651 5650 5649 5649 5649 5650 5652 5654 5656 5660 5662 5666 5670 5674 5677 5680
5735 5732 5729 5725 5722 5718 5715 5711 5707 5703 5699 5696 5691 5687 5683 5679 5675 5672 5669 5666 5663 5661 5658 5656 5653 5651 5650 5648 5646 5645 5645 5644 5645 5646 5648 5650 5654 5657 5660 5664 5668 5671 5675
5734 5731 5727 5724 5721 5719 5715 5712 5708 5704 5701 5697 5692 5687 5683 5679 5676 5673 5670 5667 5663 5661 5658 5655 5652 5650 5648 5646 5644 5642 5642 5641 5641 5642 5643 5645 5648 5651 5654 5658 5662 5666 5670
5733 5729 5725 5723 5721 5719 5716 5713 5709 5706 5702 5697 5692 5688 5684 5681 5677 5674 5670 5667 5664 5660 5657 5654 5652 5649 5647 5645 5643 5641 5640 5639 5639 5639 5640 5642 5644 5646 5650 5653 5657 5660 5663
5732 5730 5726 5723 5721 5719 5716 5713 5710 5707 5703 5697 5692 5689 5686 5682 5678 5674 5671 5667 5664 5661 5657 5654 5651 5649 5647 5645 5642 5640 5639 5637 5637 5637 5638 5640 5642 5645 5648 5651 5653 5656 5658
5733 5731 5729 5725 5722 5719 5716 5714 5710 5707 5703 5698 5693 5690 5686 5682 5678 5675 5671 5667 5664 5661 5657 5654 5651 5648 5647 5646 5644 5641 5638 5637 5636 5636 5637 5639 5641 5644 5647 5649 5652 5654 5654
5734 5732 5728 5725 5723 5720 5717 5713 5710 5707 5701 5696 5692 5689 5685 5681 5678 5675 5671 5667 5664 5661 5657 5654 5651 5648 5647 5646 5645 5642 5639 5637 5636 5636 5636 5639 5641 5642 5643 5646 5649 5651 5654
5733 5731 5728 5725 5723 5720 5717 5713 5709 5703 5698 5694 5691 5687 5684 5680 5677 5674 5670 5667 5664 5661 5658 5655 5652 5649 5648 5648 5645 5643 5640 5638 5637 5636 5636 5637 5638 5640 5641 5642 5644 5646 5649
5733 5730 5728 5725 5721 5718 5714 5709 5704 5699 5695 5691 5688 5686 5682 5679 5676 5673 5670 5668 5664 5661 5659 5656 5653 5650 5649 5649 5646 5644 5640 5638 5637 5637 5637 5637 5637 5639 5640 5640 5640 5642 5644
5732 5729 5725 5722 5717 5714 5710 5705 5699 5695 5691 5689 5686 5684 5681 5678 5675 5672 5670 5668 5665 5662 5660 5657 5655 5652 5650 5649 5648 5645 5640 5637 5637 5637 5637 5637 5637 5638 5638 5637 5637 5638 5641
5729 5725 5720 5715 5711 5708 5705 5698 5693 5689 5688 5686 5684 5681 5678 5676 5674 5671 5669 5667 5665 5662 5659 5657 5656 5653 5651 5650 5648 5646 5641 5638 5637 5636 5636 5637 5638 5638 5638 5637 5636 5638 5639
5722 5718 5713 5708 5705 5702 5699 5693 5688 5686 5684 5682 5679 5676 5674 5673 5672 5668 5666 5664 5662 5659 5657 5655 5654 5653 5651 5650 5648 5646 5644 5641 5637 5637 5637 5637 5637 5638 5638 5638 5638 5638 5638
5715 5711 5706 5701 5697 5694 5692 5686 5683 5682 5679 5675 5672 5670 5669 5667 5666 5664 5662 5660 5658 5655 5654 5652 5650 5649 5649 5647 5647 5646 5644 5641 5638 5637 5637 5637 5637 5637 5637 5638 5638 5637 5636
5708 5704 5699 5694 5689 5686 5684 5680 5678 5676 5673 5668 5665 5663 5662 5660 5660 5658 5657 5655 5653 5651 5649 5647 5645 5644 5644 5643 5643 5641 5640 5639 5637 5635 5635 5635 5635 5634 5635 5636 5635 5635 5634
5701 5697 5692 5686 5681 5679 5676 5674 5671 5668 5664 5660 5658 5656 5655 5653 5652 5651 5650 5648 5647 5646 5643 5642 5640 5638 5638 5639 5639 5638 5636 5634 5633 5631 5630 5630 5630 5630 5631 5631 5632 5632 5631
5693 5688 5683 5678 5674 5671 5668 5665 5663 5660 5656 5652 5650 5647 5646 5645 5643 5642 5641 5642 5641 5640 5639 5637 5635 5634 5634 5635 5635 5635 5633 5631 5630 5626 5624 5623 5623 5624 5625 5626 5627 5628 5628